| time (UTC) | temp C | wind direction | speed KPH | gust KPH | rain 1hr cm | rain 24hr cm | rain mn cm | humidity % | barometer mb |
| 20260504234545 | 17 | 178 | 17.7 | 35.4 | 0.00 | 0.00 | 0.00 | 35 | 1004.6 |
| 20260504233051 | 18 | 186 | 19.3 | 29.0 | 0.00 | 0.00 | 0.00 | 31 | 1004.3 |
| 20260504231544 | 19 | 236 | 8.0 | 17.7 | 0.00 | 0.00 | 0.00 | 30 | 1004.1 |
| 20260504224531 | 20 | 91 | 1.6 | 17.7 | 0.00 | 0.00 | 0.00 | 29 | 1003.9 |
| 20260504223027 | 19 | 194 | 11.3 | 20.9 | 0.00 | 0.00 | 0.00 | 30 | 1003.9 |
| 20260504221507 | 18 | 225 | 3.2 | 20.9 | 0.00 | 0.00 | 0.00 | 31 | 1004.1 |
| 20260504220007 | 20 | 225 | 11.3 | 24.1 | 0.00 | 0.00 | 0.00 | 29 | 1004.0 |
| 20260504214555 | 21 | 262 | 11.3 | 24.1 | 0.00 | 0.00 | 0.00 | 27 | 1003.8 |
| 20260504213054 | 20 | 104 | 3.2 | 20.9 | 0.00 | 0.00 | 0.00 | 29 | 1003.8 |
| 20260504211557 | 20 | 165 | 12.9 | 19.3 | 0.00 | 0.00 | 0.00 | 28 | 1004.0 |
| 20260504210100 | 20 | 200 | 8.0 | 17.7 | 0.00 | 0.00 | 0.00 | 28 | 1004.2 |
| 20260504204551 | 20 | 208 | 11.3 | 24.1 | 0.00 | 0.00 | 0.00 | 28 | 1004.2 |
| 20260504201547 | 19 | 194 | 3.2 | 16.1 | 0.00 | 0.00 | 0.00 | 30 | 1004.3 |
| 20260504200052 | 20 | 173 | 4.8 | 17.7 | 0.00 | 0.00 | 0.00 | 29 | 1004.4 |
| 20260504194540 | 20 | 195 | 8.0 | 19.3 | 0.00 | 0.00 | 0.00 | 29 | 1004.5 |
| 20260504191540 | 20 | 238 | 6.4 | 22.5 | 0.00 | 0.00 | 0.00 | 29 | 1004.6 |
| 20260504190040 | 20 | 197 | 9.7 | 27.4 | 0.00 | 0.00 | 0.00 | 29 | 1004.7 |
| 20260504184540 | 20 | 246 | 8.0 | 20.9 | 0.00 | 0.00 | 0.00 | 29 | 1004.8 |
| 20260504181515 | 20 | 243 | 6.4 | 19.3 | 0.00 | 0.00 | 0.00 | 29 | 1004.8 |
| 20260504180012 | 20 | 190 | 11.3 | 22.5 | 0.00 | 0.00 | 0.00 | 30 | 1004.6 |
| 20260504174556 | 19 | 225 | 11.3 | 24.1 | 0.00 | 0.00 | 0.00 | 31 | 1004.5 |
| 20260504173050 | 18 | 221 | 9.7 | 20.9 | 0.00 | 0.00 | 0.00 | 32 | 1004.5 |
| 20260504171536 | 18 | 232 | 12.9 | 24.1 | 0.00 | 0.00 | 0.00 | 34 | 1004.3 |
| 20260504081512 | 8 | 110 | 9.7 | 14.5 | 0.00 | 0.00 | 0.00 | 60 | 1003.8 |
| 20260504044517 | 12 | 261 | 0.0 | 0.0 | 0.00 | 0.00 | 0.00 | 51 | 1004.6 |
| 20260504043013 | 12 | 263 | 0.0 | 0.0 | 0.00 | 0.00 | 0.00 | 51 | 1004.8 |
| 20260504041559 | 13 | 263 | 0.0 | 4.8 | 0.00 | 0.00 | 0.00 | 47 | 1004.9 |
| 20260504040059 | 13 | 261 | 0.0 | 0.0 | 0.00 | 0.00 | 0.00 | 45 | 1005.0 |
| 20260504034558 | 14 | 263 | 0.0 | 0.0 | 0.00 | 0.00 | 0.00 | 44 | 1005.0 |
| 20260504033116 | 14 | 263 | 0.0 | 1.6 | 0.00 | 0.00 | 0.00 | 43 | 1005.0 |
| 20260504031559 | 15 | 263 | 0.0 | 0.0 | 0.00 | 0.00 | 0.00 | 43 | 1004.9 |
| 20260504030115 | 16 | 263 | 0.0 | 0.0 | 0.00 | 0.00 | 0.00 | 37 | 1004.7 |
| 20260504024557 | 17 | 263 | 0.0 | 0.0 | 0.00 | 0.00 | 0.00 | 33 | 1004.6 |
| 20260504023057 | 17 | 262 | 0.0 | 0.0 | 0.00 | 0.00 | 0.00 | 32 | 1004.5 |
| 20260504021548 | 17 | 263 | 0.0 | 1.6 | 0.00 | 0.00 | 0.00 | 33 | 1004.5 |
| 20260504020044 | 18 | 262 | 0.0 | 0.0 | 0.00 | 0.00 | 0.00 | 32 | 1004.2 |
| 20260504014544 | 19 | 263 | 0.0 | 6.4 | 0.00 | 0.00 | 0.00 | 29 | 1004.0 |
| 20260504013050 | 19 | 261 | 4.8 | 11.3 | 0.00 | 0.00 | 0.00 | 29 | 1004.0 |
| 20260504011543 | 19 | 262 | 8.0 | 16.1 | 0.00 | 0.00 | 0.00 | 29 | 1004.0 |
| 20260504010052 | 19 | 256 | 11.3 | 22.5 | 0.00 | 0.00 | 0.00 | 29 | 1004.5 |
| 20260504004545 | 19 | 336 | 20.9 | 37.0 | 0.00 | 0.00 | 0.00 | 31 | 1004.6 |
| 20260504003042 | 19 | 161 | 19.3 | 27.4 | 0.00 | 0.00 | 0.00 | 30 | 1004.5 |
| 20260504001531 | 20 | 226 | 11.3 | 24.1 | 0.00 | 0.00 | 0.00 | 29 | 1004.5 |
| 20260504000020 | 23 | 44 | 3.2 | 9.7 | 0.00 | 0.00 | 0.00 | 18 | 1003.6 |